PIA781 OPIS-CYYZ

Flight info

Callsign PIA781
Flight time N/A
Altitude 34000
Route KALMI1J KALMI J139 NONIB L509 HANGU G796 LAJAK L509 TAPIS M875 AMDAR M161 ODIVA L162 URUSU N984 RULEN T822 SOTIS P35 KUMEL L93 KELEK DCT ENEXI DCT BETMA DCT 74N000E 74N020W 72N040W 70N050W DCT KLIPS DCT MT DCT ROSVO IMEBA9
Aircraft B77W/H-SDE1E2E3FGHIJ2J3J4J5M1RWXY/LB1D1

Departure

Time 2026-04-27 22:14
Airport Islamabad International Airport (OPIS)

Arrival

Time N/A
Airport Toronto Pearson International Airport (CYYZ)
Time Latitude Longitude Altitude Speed Heading
2026-04-27 21:52 33.55446 72.83357 1776 ft 0 kts 10°
2026-04-27 22:05 33.55439 72.83356 1774 ft 4 kts 11°
2026-04-27 22:06 33.55412 72.83348 1775 ft 4 kts 17°
2026-04-27 22:06 33.55387 72.83337 1792 ft 4 kts 28°
2026-04-27 22:06 33.55367 72.83319 1799 ft 4 kts 64°
2026-04-27 22:06 33.55363 72.83304 1796 ft 0 kts 100°
2026-04-27 22:08 33.55363 72.83305 1774 ft 0 kts 100°
2026-04-27 22:08 33.55363 72.83308 1774 ft 2 kts 100°
2026-04-27 22:08 33.55350 72.83386 1775 ft 18 kts 101°
2026-04-27 22:08 33.55323 72.83561 1777 ft 0 kts 99°
2026-04-27 22:09 33.55319 72.83567 1777 ft 2 kts 127°
2026-04-27 22:09 33.55266 72.83556 1776 ft 16 kts 200°
2026-04-27 22:09 33.55142 72.83512 1776 ft 13 kts 190°
2026-04-27 22:09 33.55056 72.83518 1776 ft 13 kts 130°
2026-04-27 22:10 33.55031 72.83635 1776 ft 20 kts 102°
2026-04-27 22:10 33.55015 72.83744 1775 ft 20 kts 100°
2026-04-27 22:10 33.54978 72.83993 1775 ft 26 kts 100°
2026-04-27 22:10 33.54946 72.84206 1774 ft 26 kts 100°
2026-04-27 22:11 33.54918 72.84395 1776 ft 19 kts 100°
2026-04-27 22:11 33.54878 72.84528 1777 ft 13 kts 147°
2026-04-27 22:11 33.54787 72.84533 1773 ft 14 kts 188°
2026-04-27 22:11 33.54688 72.84510 1771 ft 15 kts 191°
2026-04-27 22:12 33.54646 72.84501 1771 ft 0 kts 191°
2026-04-27 22:12 33.54617 72.84494 1771 ft 13 kts 191°
2026-04-27 22:12 33.54524 72.84444 1770 ft 12 kts 256°
2026-04-27 22:13 33.54525 72.84388 1766 ft 0 kts 277°
2026-04-27 22:13 33.54525 72.84386 1767 ft 7 kts 277°
2026-04-27 22:13 33.54587 72.83974 1768 ft 93 kts 280°
2026-04-27 22:13 33.54756 72.82886 1765 ft 172 kts 280°
2026-04-27 22:14 33.54993 72.81232 2068 ft 214 kts 279°
2026-04-27 22:14 33.55309 72.79475 3085 ft 213 kts 281°
2026-04-27 22:14 33.55654 72.77709 3590 ft 227 kts 282°
2026-04-27 22:14 33.55997 72.75780 3755 ft 246 kts 281°
2026-04-27 22:15 33.56302 72.73712 4070 ft 256 kts 271°
2026-04-27 22:15 33.55990 72.71952 4373 ft 262 kts 240°
2026-04-27 22:15 33.54983 72.70526 4680 ft 269 kts 222°
2026-04-27 22:15 33.53794 72.68780 4975 ft 277 kts 250°
2026-04-27 22:16 33.53539 72.66512 5499 ft 276 kts 274°
2026-04-27 22:16 33.53691 72.64236 6092 ft 280 kts 274°
2026-04-27 22:16 33.53796 72.61867 6752 ft 280 kts 272°
2026-04-27 22:16 33.53867 72.59863 7349 ft 279 kts 277°
2026-04-27 22:17 33.54310 72.57630 7951 ft 280 kts 288°
2026-04-27 22:17 33.54983 72.55426 8522 ft 285 kts 290°
2026-04-27 22:17 33.55709 72.53209 9172 ft 285 kts 291°
2026-04-27 22:17 33.56278 72.51467 9705 ft 286 kts 290°
2026-04-27 22:18 33.56801 72.49845 10099 ft 289 kts 290°
2026-04-27 22:18 33.57485 72.47695 10420 ft 303 kts 290°
2026-04-27 22:18 33.58199 72.45412 10554 ft 322 kts 289°
2026-04-27 22:18 33.58953 72.42972 10716 ft 341 kts 289°
2026-04-27 22:19 33.59792 72.40227 10878 ft 360 kts 289°
2026-04-27 22:19 33.60659 72.37364 11275 ft 370 kts 289°
2026-04-27 22:19 33.61489 72.34611 11764 ft 377 kts 289°
2026-04-27 22:19 33.62391 72.31601 12450 ft 380 kts 289°
2026-04-27 22:20 33.63275 72.28645 13155 ft 382 kts 289°
2026-04-27 22:20 33.64137 72.26032 13723 ft 384 kts 294°
2026-04-27 22:20 33.65438 72.23211 14338 ft 389 kts 300°
2026-04-27 22:20 33.66940 72.20489 14928 ft 392 kts 300°
2026-04-27 22:21 33.68444 72.17744 15507 ft 396 kts 301°
2026-04-27 22:21 33.69955 72.14968 16176 ft 397 kts 301°
2026-04-27 22:21 33.71471 72.12177 16789 ft 401 kts 301°
2026-04-27 22:21 33.72997 72.09359 17344 ft 405 kts 301°
2026-04-27 22:22 33.74539 72.06504 17895 ft 410 kts 301°
2026-04-27 22:22 33.76096 72.03616 18399 ft 413 kts 300°
2026-04-27 22:22 33.77661 72.00707 18904 ft 416 kts 300°
2026-04-27 22:22 33.79236 71.97775 19407 ft 419 kts 300°
2026-04-27 22:23 33.80820 71.94825 19897 ft 422 kts 300°
2026-04-27 22:23 33.82418 71.91845 20389 ft 425 kts 300°
2026-04-27 22:23 33.84030 71.88838 20839 ft 430 kts 300°
2026-04-27 22:23 33.85655 71.85802 21276 ft 434 kts 300°
2026-04-27 22:24 33.87294 71.82738 21746 ft 437 kts 300°
2026-04-27 22:24 33.88945 71.79648 22176 ft 441 kts 300°
2026-04-27 22:24 33.90608 71.76534 22590 ft 445 kts 300°
2026-04-27 22:24 33.92264 71.73432 23054 ft 447 kts 300°
2026-04-27 22:25 33.93971 71.70233 23488 ft 450 kts 300°
2026-04-27 22:25 33.95640 71.67099 23838 ft 452 kts 300°
2026-04-27 22:25 33.97344 71.63898 24193 ft 455 kts 300°
2026-04-27 22:25 33.99056 71.60680 24542 ft 457 kts 300°
2026-04-27 22:26 34.00776 71.57451 24907 ft 460 kts 300°
2026-04-27 22:26 34.02681 71.54322 25237 ft 467 kts 307°
2026-04-27 22:26 34.04812 71.51357 25514 ft 468 kts 305°
2026-04-27 22:26 34.06537 71.48049 25766 ft 466 kts 291°
2026-04-27 22:27 34.07588 71.44362 26125 ft 463 kts 280°
2026-04-27 22:27 34.07982 71.41793 26381 ft 461 kts 273°
2026-04-27 22:27 34.08216 71.37948 26711 ft 461 kts 271°
2026-04-27 22:27 34.08447 71.34076 27024 ft 464 kts 272°
2026-04-27 22:28 34.08702 71.30231 27326 ft 467 kts 272°
2026-04-27 22:28 34.08974 71.26271 27727 ft 468 kts 272°
2026-04-27 22:28 34.09249 71.22360 28065 ft 470 kts 272°
2026-04-27 22:28 34.09528 71.18423 28383 ft 472 kts 272°
2026-04-27 22:29 34.09808 71.14471 28695 ft 474 kts 272°
2026-04-27 22:29 34.10087 71.10502 28991 ft 475 kts 272°
2026-04-27 22:29 34.10362 71.06578 29264 ft 478 kts 272°
2026-04-27 22:29 34.10640 71.02580 29492 ft 479 kts 272°
2026-04-27 22:30 34.10918 70.98561 29728 ft 482 kts 271°
2026-04-27 22:30 34.11473 70.90465 29813 ft 484 kts 271°
2026-04-27 22:31 34.12023 70.82430 29831 ft 478 kts 271°
2026-04-27 22:31 34.12599 70.74443 29828 ft 477 kts 272°
2026-04-27 22:32 34.13151 70.66450 29976 ft 480 kts 271°
2026-04-27 22:32 34.13417 70.62430 30292 ft 479 kts 271°
2026-04-27 22:32 34.13677 70.58442 30677 ft 476 kts 271°
2026-04-27 22:32 34.13933 70.54477 31055 ft 473 kts 271°
2026-04-27 22:33 34.14187 70.50519 31362 ft 472 kts 271°
2026-04-27 22:33 34.14439 70.46560 31622 ft 472 kts 271°
2026-04-27 22:33 34.14689 70.42611 31789 ft 473 kts 271°
2026-04-27 22:34 34.15189 70.34674 31848 ft 474 kts 271°
2026-04-27 22:34 34.15686 70.26737 31849 ft 473 kts 271°
2026-04-27 22:35 34.16174 70.18840 31889 ft 471 kts 271°
2026-04-27 22:35 34.16657 70.10945 31878 ft 471 kts 271°
2026-04-27 22:36 34.17136 70.03056 31889 ft 471 kts 271°
2026-04-27 22:36 34.18473 69.95948 31893 ft 479 kts 295°
2026-04-27 22:36 34.20345 69.92576 31911 ft 488 kts 308°
2026-04-27 22:37 34.22877 69.89802 31906 ft 494 kts 321°
2026-04-27 22:37 34.28569 69.85056 31926 ft 500 kts 322°
2026-04-27 22:38 34.34314 69.80262 31908 ft 503 kts 322°
2026-04-27 22:38 34.40012 69.75298 31922 ft 506 kts 321°
2026-04-27 22:39 34.45164 69.70697 31921 ft 508 kts 322°
2026-04-27 22:39 34.51297 69.66364 31915 ft 513 kts 330°
2026-04-27 22:40 34.57673 69.62434 31922 ft 514 kts 330°
2026-04-27 22:40 34.64028 69.58459 31928 ft 514 kts 330°
2026-04-27 22:41 34.70353 69.54391 31921 ft 514 kts 329°
2026-04-27 22:41 34.76632 69.50304 31922 ft 513 kts 329°
2026-04-27 22:42 34.82787 69.46288 31937 ft 513 kts 329°
2026-04-27 22:42 34.89073 69.42185 31931 ft 513 kts 329°
2026-04-27 22:43 34.95330 69.38098 31954 ft 513 kts 329°
2026-04-27 22:43 35.01635 69.33974 31940 ft 514 kts 329°
2026-04-27 22:44 35.07907 69.29863 31960 ft 515 kts 329°
2026-04-27 22:44 35.14231 69.25711 31972 ft 516 kts 329°
2026-04-27 22:45 35.20553 69.21553 31987 ft 517 kts 329°
2026-04-27 22:45 35.26894 69.17375 31983 ft 517 kts 329°
2026-04-27 22:46 35.33234 69.13191 32001 ft 517 kts 329°
2026-04-27 22:46 35.39535 69.09023 31997 ft 518 kts 329°
2026-04-27 22:47 35.45886 69.04814 31980 ft 518 kts 329°
2026-04-27 22:47 35.52233 69.00602 31984 ft 517 kts 329°
2026-04-27 22:48 35.58567 68.96392 31988 ft 517 kts 329°
2026-04-27 22:48 35.64858 68.92202 31958 ft 517 kts 329°
2026-04-27 22:49 35.71182 68.87982 31957 ft 515 kts 329°
2026-04-27 22:49 35.77446 68.83795 31953 ft 514 kts 329°
2026-04-27 22:50 35.83731 68.79585 31936 ft 513 kts 329°
2026-04-27 22:50 35.90005 68.75376 31920 ft 513 kts 329°
2026-04-27 22:51 35.96275 68.71161 31926 ft 513 kts 329°
2026-04-27 22:51 36.02542 68.66941 31927 ft 513 kts 328°
2026-04-27 22:52 36.08822 68.62704 31914 ft 514 kts 328°
2026-04-27 22:52 36.15078 68.58477 31918 ft 515 kts 328°
2026-04-27 22:53 36.21381 68.54209 31919 ft 516 kts 328°
2026-04-27 22:53 36.27688 68.49930 31917 ft 517 kts 328°
2026-04-27 22:54 36.34021 68.45625 31909 ft 518 kts 328°
2026-04-27 22:54 36.40343 68.41321 31900 ft 518 kts 328°
2026-04-27 22:55 36.46672 68.37004 31879 ft 518 kts 328°
2026-04-27 22:55 36.52985 68.32690 31892 ft 518 kts 328°
2026-04-27 22:56 36.59263 68.28391 31870 ft 518 kts 328°
2026-04-27 22:56 36.65561 68.24071 31864 ft 515 kts 328°
2026-04-27 22:57 36.71822 68.19770 31860 ft 511 kts 328°
2026-04-27 22:57 36.78031 68.15494 31847 ft 508 kts 327°
2026-04-27 22:58 36.84169 68.11259 31853 ft 507 kts 327°
2026-04-27 22:58 36.90349 68.06987 31849 ft 508 kts 327°
2026-04-27 22:59 36.96543 68.02696 31841 ft 509 kts 327°
2026-04-27 22:59 37.02758 67.98384 31849 ft 511 kts 327°
2026-04-27 23:00 37.12062 67.91914 31833 ft 512 kts 327°
2026-04-27 23:00 37.18295 67.87571 31838 ft 511 kts 327°
2026-04-27 23:01 37.24515 67.83227 31843 ft 510 kts 327°
2026-04-27 23:01 37.30714 67.78891 31835 ft 509 kts 327°
2026-04-27 23:02 37.36866 67.74578 31833 ft 508 kts 327°
2026-04-27 23:02 37.43031 67.70248 31844 ft 507 kts 327°
2026-04-27 23:03 37.49199 67.65908 31834 ft 506 kts 327°
2026-04-27 23:03 37.55317 67.61595 31842 ft 506 kts 327°
2026-04-27 23:04 37.61463 67.57252 31854 ft 506 kts 327°
2026-04-27 23:04 37.67624 67.52891 31847 ft 506 kts 327°
2026-04-27 23:05 37.73732 67.48561 31836 ft 506 kts 327°
2026-04-27 23:05 37.79866 67.44203 31838 ft 505 kts 327°
2026-04-27 23:06 37.85988 67.39846 31841 ft 505 kts 327°
2026-04-27 23:06 37.92111 67.35479 31845 ft 504 kts 327°
2026-04-27 23:07 37.98212 67.31119 31855 ft 504 kts 326°
2026-04-27 23:07 38.04289 67.26768 31874 ft 504 kts 326°
2026-04-27 23:08 38.10434 67.22360 31873 ft 504 kts 326°
2026-04-27 23:08 38.16505 67.17997 31891 ft 504 kts 326°
2026-04-27 23:09 38.22623 67.13591 31909 ft 505 kts 326°
2026-04-27 23:09 38.28720 67.09192 31922 ft 507 kts 326°
2026-04-27 23:10 38.34862 67.04751 31927 ft 507 kts 326°
2026-04-27 23:10 38.41011 67.00298 31927 ft 507 kts 325°
2026-04-27 23:11 38.47154 66.95840 31920 ft 507 kts 325°
2026-04-27 23:11 38.53260 66.91400 31917 ft 506 kts 325°
2026-04-27 23:12 38.59383 66.86939 31914 ft 506 kts 325°
2026-04-27 23:12 38.64468 66.83227 31910 ft 504 kts 325°
2026-04-27 23:13 38.70561 66.78769 31903 ft 503 kts 325°
2026-04-27 23:13 38.76591 66.74352 31882 ft 502 kts 325°
2026-04-27 23:14 38.82658 66.69899 31878 ft 501 kts 325°
2026-04-27 23:14 38.88703 66.65452 31878 ft 500 kts 325°
2026-04-27 23:15 38.94746 66.60996 31878 ft 501 kts 325°
2026-04-27 23:15 39.00803 66.56522 31877 ft 502 kts 326°
2026-04-27 23:16 39.06823 66.52068 31869 ft 502 kts 326°
2026-04-27 23:16 39.12884 66.47573 31877 ft 502 kts 326°
2026-04-27 23:17 39.18928 66.43082 31866 ft 501 kts 326°
2026-04-27 23:17 39.24966 66.38587 31865 ft 500 kts 326°
2026-04-27 23:18 39.30947 66.34125 31878 ft 499 kts 326°
2026-04-27 23:18 39.36957 66.29633 31867 ft 498 kts 326°
2026-04-27 23:19 39.42954 66.25142 31865 ft 497 kts 326°
2026-04-27 23:19 39.48900 66.20679 31883 ft 495 kts 327°
2026-04-27 23:20 39.54861 66.16196 31872 ft 495 kts 327°
2026-04-27 23:20 39.60804 66.11718 31874 ft 494 kts 327°
2026-04-27 23:21 39.66751 66.07229 31893 ft 493 kts 327°
2026-04-27 23:21 39.72650 66.02765 31886 ft 493 kts 327°
2026-04-27 23:22 39.78589 65.98263 31880 ft 493 kts 327°
2026-04-27 23:22 39.84517 65.93760 31902 ft 493 kts 327°
2026-04-27 23:23 39.90448 65.89245 31894 ft 493 kts 327°
2026-04-27 23:23 39.96372 65.84727 31907 ft 493 kts 327°
2026-04-27 23:24 40.02301 65.80196 31923 ft 493 kts 327°
2026-04-27 23:24 40.08180 65.75694 31916 ft 493 kts 327°
2026-04-27 23:25 40.14094 65.71156 31919 ft 493 kts 327°
2026-04-27 23:25 40.20022 65.66597 31919 ft 493 kts 327°
2026-04-27 23:26 40.25944 65.62034 31923 ft 494 kts 327°
2026-04-27 23:26 40.31865 65.57463 31922 ft 493 kts 327°
2026-04-27 23:27 40.37895 65.53267 31929 ft 494 kts 333°
2026-04-27 23:27 40.44172 65.49538 31921 ft 494 kts 334°
2026-04-27 23:28 40.50442 65.45814 31924 ft 494 kts 334°
2026-04-27 23:28 40.56694 65.42047 31928 ft 494 kts 333°
2026-04-27 23:29 40.62899 65.38280 31933 ft 494 kts 333°
2026-04-27 23:29 40.69146 65.34478 31923 ft 494 kts 333°
2026-04-27 23:30 40.75396 65.30669 31928 ft 494 kts 333°
2026-04-27 23:30 40.81629 65.26864 31935 ft 494 kts 333°
2026-04-27 23:31 40.87829 65.23071 31932 ft 494 kts 333°
2026-04-27 23:31 40.94090 65.19232 31934 ft 494 kts 333°
2026-04-27 23:32 41.00331 65.15398 31934 ft 494 kts 333°
2026-04-27 23:32 41.06521 65.11586 31941 ft 494 kts 333°
2026-04-27 23:33 41.12760 65.07736 31943 ft 494 kts 333°
2026-04-27 23:33 41.18982 65.03890 31942 ft 494 kts 333°
2026-04-27 23:34 41.25210 65.00024 31956 ft 494 kts 333°
2026-04-27 23:34 41.31403 64.96167 31947 ft 494 kts 333°
2026-04-27 23:35 41.37637 64.92275 31955 ft 494 kts 333°
2026-04-27 23:35 41.43858 64.88383 31964 ft 494 kts 333°
2026-04-27 23:36 41.50048 64.84504 31964 ft 494 kts 333°
2026-04-27 23:36 41.56261 64.80602 31965 ft 494 kts 333°
2026-04-27 23:37 41.62493 64.76680 31966 ft 494 kts 333°
2026-04-27 23:37 41.68717 64.72754 31974 ft 494 kts 333°
2026-04-27 23:38 41.74899 64.68846 31978 ft 494 kts 333°
2026-04-27 23:38 41.81118 64.64906 31976 ft 493 kts 333°
2026-04-27 23:39 41.87326 64.60965 31980 ft 493 kts 333°
2026-04-27 23:39 41.93526 64.57021 31984 ft 492 kts 333°
2026-04-27 23:40 41.99715 64.53074 31984 ft 492 kts 333°
2026-04-27 23:40 42.05868 64.49143 31987 ft 492 kts 333°
2026-04-27 23:41 42.12054 64.45181 31993 ft 491 kts 333°
2026-04-27 23:41 42.18223 64.41222 31991 ft 491 kts 333°
2026-04-27 23:42 42.24393 64.37254 31988 ft 491 kts 333°
2026-04-27 23:42 42.30524 64.33302 31993 ft 491 kts 333°
2026-04-27 23:43 42.36698 64.29313 31994 ft 491 kts 333°
2026-04-27 23:43 42.42867 64.25319 32003 ft 491 kts 333°
2026-04-27 23:44 42.49037 64.21316 32007 ft 491 kts 333°
2026-04-27 23:44 42.55174 64.17325 32007 ft 491 kts 333°
2026-04-27 23:45 42.61356 64.13330 32003 ft 492 kts 334°
2026-04-27 23:45 42.67654 64.09614 32009 ft 493 kts 335°
2026-04-27 23:46 42.73976 64.05975 32027 ft 493 kts 335°
2026-04-27 23:46 42.80297 64.02281 32023 ft 494 kts 335°
2026-04-27 23:47 42.86561 63.98577 32012 ft 494 kts 334°
2026-04-27 23:47 42.92875 63.94827 32032 ft 495 kts 334°
2026-04-27 23:48 42.99190 63.91070 32017 ft 495 kts 334°
2026-04-27 23:48 43.05518 63.87298 32026 ft 496 kts 334°
2026-04-27 23:49 43.11854 63.83515 32017 ft 497 kts 334°
2026-04-27 23:49 43.18159 63.79740 32027 ft 497 kts 334°
2026-04-27 23:50 43.24521 63.75923 32026 ft 498 kts 334°
2026-04-27 23:50 43.30843 63.72122 32031 ft 499 kts 334°
2026-04-27 23:51 43.37212 63.68282 32034 ft 500 kts 334°
2026-04-27 23:51 43.43579 63.64435 32038 ft 500 kts 334°
2026-04-27 23:52 43.49973 63.60565 32035 ft 501 kts 334°
2026-04-27 23:52 43.56366 63.56696 32035 ft 501 kts 334°
2026-04-27 23:53 43.62765 63.52825 32044 ft 501 kts 334°
2026-04-27 23:53 43.69123 63.48965 32040 ft 501 kts 334°
2026-04-27 23:54 43.75503 63.45074 32049 ft 501 kts 334°
2026-04-27 23:54 43.81892 63.41168 32045 ft 501 kts 334°
2026-04-27 23:55 43.88228 63.37286 32043 ft 500 kts 334°
2026-04-27 23:55 43.94600 63.33371 32048 ft 500 kts 334°
2026-04-27 23:56 44.00959 63.29429 32049 ft 500 kts 334°
2026-04-27 23:56 44.07315 63.25475 32052 ft 500 kts 334°
2026-04-27 23:57 44.13668 63.21517 32052 ft 500 kts 334°
2026-04-27 23:57 44.19990 63.17571 32059 ft 500 kts 334°
2026-04-27 23:58 44.26346 63.13603 32060 ft 500 kts 334°
2026-04-27 23:58 44.31643 63.10296 32063 ft 500 kts 334°
2026-04-27 23:59 44.39049 63.05662 32067 ft 501 kts 334°
2026-04-27 23:59 44.45397 63.01676 32072 ft 501 kts 334°
2026-04-28 00:00 44.50688 62.98347 32084 ft 500 kts 333°
2026-04-28 00:00 44.57055 62.94331 32079 ft 500 kts 333°
2026-04-28 00:01 44.63404 62.90317 32074 ft 500 kts 333°
2026-04-28 00:01 44.69756 62.86292 32092 ft 500 kts 333°
2026-04-28 00:02 44.76056 62.82290 32079 ft 499 kts 333°
2026-04-28 00:02 44.82391 62.78256 32084 ft 498 kts 333°
2026-04-28 00:03 44.88715 62.74220 32095 ft 497 kts 333°
2026-04-28 00:03 44.94974 62.70215 32085 ft 496 kts 333°
2026-04-28 00:04 45.04412 62.64156 32090 ft 496 kts 333°
2026-04-28 00:05 45.10699 62.60109 32101 ft 496 kts 333°
2026-04-28 00:05 45.16989 62.56050 32097 ft 496 kts 333°
2026-04-28 00:06 45.23274 62.51986 32118 ft 496 kts 333°
2026-04-28 00:06 45.29560 62.47913 32106 ft 496 kts 333°
2026-04-28 00:07 45.35802 62.43859 32102 ft 496 kts 333°
2026-04-28 00:07 45.42084 62.39767 32112 ft 496 kts 333°
2026-04-28 00:08 45.48375 62.35660 32107 ft 496 kts 333°
2026-04-28 00:08 45.54614 62.31576 32111 ft 496 kts 333°
2026-04-28 00:09 45.60883 62.27463 32121 ft 495 kts 332°
2026-04-28 00:09 45.67154 62.23338 32122 ft 495 kts 332°
2026-04-28 00:10 45.73421 62.19205 32113 ft 495 kts 332°
2026-04-28 00:10 45.79679 62.15068 32115 ft 495 kts 332°
2026-04-28 00:11 45.85912 62.11005 32116 ft 495 kts 334°
2026-04-28 00:11 45.92321 62.07261 32120 ft 496 kts 335°
2026-04-28 00:12 45.98740 62.03565 32131 ft 496 kts 335°
2026-04-28 00:12 46.05104 61.99819 32129 ft 497 kts 334°
2026-04-28 00:13 46.11503 61.96012 32128 ft 497 kts 334°
2026-04-28 00:13 46.17905 61.92197 32129 ft 497 kts 334°
2026-04-28 00:14 46.24300 61.88381 32129 ft 498 kts 334°
2026-04-28 00:14 46.30708 61.84551 32130 ft 498 kts 334°
2026-04-28 00:15 46.37070 61.80744 32132 ft 497 kts 334°
2026-04-28 00:15 46.43475 61.76901 32128 ft 497 kts 334°
2026-04-28 00:16 46.49858 61.73060 32140 ft 495 kts 334°
2026-04-28 00:16 46.56183 61.69243 32135 ft 495 kts 334°
2026-04-28 00:17 46.62548 61.65392 32139 ft 494 kts 334°
2026-04-28 00:17 46.68901 61.61539 32139 ft 493 kts 334°
2026-04-28 00:18 46.75234 61.57688 32149 ft 493 kts 334°
2026-04-28 00:18 46.81569 61.53827 32148 ft 493 kts 334°
2026-04-28 00:19 46.87856 61.49981 32146 ft 493 kts 334°
2026-04-28 00:19 46.94195 61.46088 32146 ft 493 kts 334°
2026-04-28 00:20 47.00529 61.42186 32158 ft 494 kts 333°
2026-04-28 00:20 47.06873 61.38269 32152 ft 495 kts 333°
2026-04-28 00:21 47.13196 61.34356 32154 ft 496 kts 333°
2026-04-28 00:21 47.19559 61.30408 32169 ft 496 kts 333°
2026-04-28 00:22 47.25930 61.26444 32153 ft 496 kts 333°
2026-04-28 00:22 47.32282 61.22483 32152 ft 495 kts 333°
2026-04-28 00:23 47.38596 61.18534 32168 ft 495 kts 333°
2026-04-28 00:23 47.44940 61.14556 32150 ft 494 kts 333°
2026-04-28 00:24 47.51271 61.10576 32156 ft 493 kts 333°
2026-04-28 00:24 47.57591 61.06593 32171 ft 493 kts 333°
2026-04-28 00:25 47.63861 61.02629 32164 ft 492 kts 333°
2026-04-28 00:25 47.70158 60.98639 32157 ft 491 kts 333°
2026-04-28 00:26 47.76436 60.94651 32154 ft 490 kts 333°
2026-04-28 00:26 47.82707 60.90655 32152 ft 490 kts 333°
2026-04-28 00:27 47.88971 60.86655 32152 ft 490 kts 333°
2026-04-28 00:27 47.95242 60.82638 32169 ft 491 kts 333°
2026-04-28 00:28 48.01540 60.78593 32157 ft 493 kts 333°
2026-04-28 00:28 48.07824 60.74547 32159 ft 495 kts 333°
2026-04-28 00:29 48.14149 60.70465 32170 ft 495 kts 333°
2026-04-28 00:29 48.20473 60.66372 32176 ft 495 kts 333°
2026-04-28 00:30 48.26790 60.62272 32160 ft 494 kts 332°
2026-04-28 00:30 48.33103 60.58163 32162 ft 492 kts 332°
2026-04-28 00:31 48.39385 60.54063 32180 ft 491 kts 332°
2026-04-28 00:31 48.45620 60.49982 32167 ft 491 kts 332°
2026-04-28 00:32 48.51883 60.45870 32161 ft 490 kts 332°
2026-04-28 00:32 48.58136 60.41755 32151 ft 490 kts 332°
2026-04-28 00:33 48.64392 60.37627 32156 ft 491 kts 332°
2026-04-28 00:33 48.70657 60.33481 32155 ft 491 kts 332°
2026-04-28 00:34 48.76894 60.29343 32161 ft 492 kts 332°
2026-04-28 00:34 48.83171 60.25167 32170 ft 492 kts 332°
2026-04-28 00:35 48.89458 60.20973 32156 ft 493 kts 332°
2026-04-28 00:35 48.95741 60.16769 32154 ft 493 kts 332°
2026-04-28 00:36 49.02038 60.12546 32177 ft 494 kts 332°
2026-04-28 00:36 49.08335 60.08310 32156 ft 495 kts 332°
2026-04-28 00:37 49.14612 60.04076 32155 ft 495 kts 332°
2026-04-28 00:37 49.20920 59.99809 32155 ft 495 kts 332°
2026-04-28 00:38 49.27228 59.95530 32157 ft 496 kts 331°
2026-04-28 00:38 49.33508 59.91258 32154 ft 496 kts 331°
2026-04-28 00:39 49.39822 59.86951 32158 ft 496 kts 331°
2026-04-28 00:39 49.46130 59.82635 32164 ft 496 kts 331°
2026-04-28 00:40 49.52449 59.78300 32148 ft 497 kts 331°
2026-04-28 00:40 49.58773 59.73950 32148 ft 497 kts 331°
2026-04-28 00:41 49.65056 59.69617 32147 ft 497 kts 331°
2026-04-28 00:41 49.71389 59.65236 32141 ft 498 kts 331°
2026-04-28 00:42 49.76654 59.61583 32149 ft 499 kts 331°
2026-04-28 00:42 49.82997 59.57172 32149 ft 499 kts 331°
2026-04-28 00:43 49.89340 59.52747 32131 ft 499 kts 331°
2026-04-28 00:43 49.95648 59.48334 32132 ft 499 kts 331°
2026-04-28 00:44 50.01984 59.43889 32143 ft 499 kts 331°
2026-04-28 00:44 50.08321 59.39431 32141 ft 499 kts 331°
2026-04-28 00:45 50.14656 59.34960 32128 ft 500 kts 331°
2026-04-28 00:45 50.20997 59.30473 32123 ft 500 kts 331°
2026-04-28 00:46 50.27304 59.25996 32124 ft 500 kts 331°
2026-04-28 00:46 50.33643 59.21483 32126 ft 501 kts 331°
2026-04-28 00:47 50.39994 59.16948 32122 ft 501 kts 331°
2026-04-28 00:47 50.46349 59.12398 32111 ft 501 kts 331°
2026-04-28 00:48 50.52657 59.07866 32132 ft 501 kts 330°
2026-04-28 00:48 50.59017 59.03285 32111 ft 502 kts 330°
2026-04-28 00:49 50.65342 58.98714 32099 ft 503 kts 330°
2026-04-28 00:49 50.71703 58.94105 32097 ft 503 kts 330°
2026-04-28 00:50 50.78063 58.89482 32090 ft 504 kts 330°
2026-04-28 00:50 50.84444 58.84829 32080 ft 505 kts 330°
2026-04-28 00:51 50.90825 58.80161 32076 ft 505 kts 330°
2026-04-28 00:51 50.97168 58.75507 32097 ft 506 kts 330°
2026-04-28 00:52 51.03584 58.70785 32082 ft 507 kts 330°
2026-04-28 00:52 51.09954 58.66082 32073 ft 507 kts 330°
2026-04-28 00:53 51.16351 58.61346 32073 ft 506 kts 330°
2026-04-28 00:53 51.22740 58.56603 32080 ft 506 kts 329°
2026-04-28 00:54 51.29129 58.51840 32072 ft 506 kts 329°
2026-04-28 00:54 51.35517 58.47066 32057 ft 507 kts 329°
2026-04-28 00:55 51.41911 58.42272 32083 ft 507 kts 329°
2026-04-28 00:55 51.48274 58.37486 32057 ft 509 kts 329°
2026-04-28 00:56 51.54752 58.32836 32039 ft 512 kts 332°
2026-04-28 00:56 51.61435 58.28700 32037 ft 514 kts 334°
2026-04-28 00:57 51.68134 58.24619 32033 ft 515 kts 333°
2026-04-28 00:57 51.74795 58.20483 32036 ft 516 kts 333°
2026-04-28 00:58 51.81499 58.16275 32026 ft 516 kts 332°
2026-04-28 00:58 51.88174 58.12073 32059 ft 516 kts 332°
2026-04-28 00:59 51.94895 58.07829 32017 ft 518 kts 332°
2026-04-28 00:59 52.01624 58.03571 32019 ft 519 kts 332°
2026-04-28 01:00 52.08353 57.99308 32016 ft 518 kts 332°
2026-04-28 01:00 52.15032 57.95071 32004 ft 517 kts 332°
2026-04-28 01:01 52.21746 57.90793 32016 ft 516 kts 332°
2026-04-28 01:01 52.28404 57.86535 32016 ft 516 kts 332°
2026-04-28 01:02 52.35093 57.82243 32046 ft 516 kts 331°
2026-04-28 01:02 52.41809 57.77898 32007 ft 518 kts 331°
2026-04-28 01:03 52.48534 57.73531 32006 ft 519 kts 331°
2026-04-28 01:03 52.55259 57.69151 32001 ft 521 kts 331°
2026-04-28 01:04 52.62009 57.64744 32005 ft 523 kts 330°
2026-04-28 01:04 52.68761 57.60319 32003 ft 524 kts 330°
2026-04-28 01:05 52.75534 57.55866 31994 ft 524 kts 330°
2026-04-28 01:05 52.82271 57.51422 32056 ft 524 kts 330°
2026-04-28 01:06 52.89075 57.46916 32003 ft 526 kts 330°
2026-04-28 01:06 52.95882 57.42394 31993 ft 526 kts 330°
2026-04-28 01:07 53.02673 57.37867 32019 ft 526 kts 330°
2026-04-28 01:07 53.09457 57.33326 32035 ft 527 kts 330°
2026-04-28 01:08 53.16229 57.28781 32010 ft 527 kts 329°
2026-04-28 01:08 53.23032 57.24187 31999 ft 526 kts 329°
2026-04-28 01:09 53.29816 57.19577 32056 ft 526 kts 329°
2026-04-28 01:09 53.36620 57.14940 32023 ft 527 kts 329°
2026-04-28 01:10 53.43375 57.10334 32024 ft 527 kts 329°
2026-04-28 01:10 53.50187 57.05702 32024 ft 527 kts 329°
2026-04-28 01:11 53.56991 57.01057 32049 ft 529 kts 329°
2026-04-28 01:11 53.63812 56.96380 32016 ft 530 kts 329°
2026-04-28 01:12 53.70645 56.91669 32000 ft 530 kts 329°
2026-04-28 01:12 53.77473 56.86911 32010 ft 530 kts 329°
2026-04-28 01:13 53.84262 56.82175 31984 ft 531 kts 330°
2026-04-28 01:13 53.94538 56.75095 31994 ft 531 kts 330°
2026-04-28 01:14 54.01375 56.70330 31989 ft 530 kts 329°
2026-04-28 01:14 54.08209 56.65503 31987 ft 532 kts 329°
2026-04-28 01:15 54.15013 56.60682 31985 ft 532 kts 329°
2026-04-28 01:15 54.21860 56.55823 31978 ft 532 kts 329°
2026-04-28 01:16 54.28705 56.50948 32040 ft 533 kts 329°
2026-04-28 01:16 54.35572 56.46037 31971 ft 535 kts 329°
2026-04-28 01:17 54.42434 56.41069 31969 ft 533 kts 326°
2026-04-28 01:17 54.48736 56.34879 31964 ft 517 kts 315°
2026-04-28 01:18 54.54612 56.27738 31966 ft 517 kts 315°
2026-04-28 01:18 54.60545 56.20694 31961 ft 519 kts 316°
2026-04-28 01:19 54.65536 56.14783 31958 ft 518 kts 316°
2026-04-28 01:19 54.72426 56.06549 31960 ft 517 kts 316°
2026-04-28 01:20 54.78363 55.99430 31947 ft 519 kts 315°
2026-04-28 01:20 54.84274 55.92320 31953 ft 520 kts 315°
2026-04-28 01:21 54.90213 55.85149 31933 ft 520 kts 315°
2026-04-28 01:21 54.96142 55.77939 31985 ft 520 kts 315°
2026-04-28 01:22 55.02101 55.70672 31933 ft 523 kts 315°
2026-04-28 01:22 55.08039 55.63446 31934 ft 524 kts 315°
2026-04-28 01:23 55.14029 55.56142 31922 ft 524 kts 315°
2026-04-28 01:23 55.20007 55.48818 31962 ft 525 kts 315°
2026-04-28 01:24 55.26019 55.41416 31914 ft 528 kts 315°
2026-04-28 01:24 55.31995 55.34037 31906 ft 528 kts 315°
2026-04-28 01:25 55.38011 55.26582 31902 ft 529 kts 315°
2026-04-28 01:25 55.44019 55.19096 31903 ft 529 kts 314°
2026-04-28 01:26 55.50033 55.11560 31905 ft 530 kts 314°
2026-04-28 01:26 55.56020 55.04025 31886 ft 531 kts 314°
2026-04-28 01:27 55.61045 54.97681 31880 ft 531 kts 314°
2026-04-28 01:27 55.67068 54.90049 31897 ft 534 kts 315°
2026-04-28 01:28 55.74092 54.81118 31878 ft 534 kts 315°
2026-04-28 01:28 55.79125 54.74695 31882 ft 534 kts 315°
2026-04-28 01:29 55.85164 54.66956 31868 ft 534 kts 314°
2026-04-28 01:29 55.91200 54.59188 31858 ft 536 kts 315°
2026-04-28 01:30 55.97234 54.51396 31868 ft 535 kts 315°
2026-04-28 01:30 56.03264 54.43576 31851 ft 534 kts 315°
2026-04-28 01:31 56.09248 54.35788 31907 ft 534 kts 315°
2026-04-28 01:31 56.15391 54.28139 31853 ft 538 kts 319°
2026-04-28 01:32 56.21677 54.20808 31836 ft 539 kts 319°
2026-04-28 01:32 56.27933 54.13409 31826 ft 538 kts 318°
2026-04-28 01:33 56.34172 54.05889 31861 ft 538 kts 319°
2026-04-28 01:33 56.40368 53.98395 31820 ft 539 kts 319°
2026-04-28 01:34 56.46602 53.90813 31799 ft 539 kts 318°
2026-04-28 01:34 56.52815 53.83206 31802 ft 539 kts 318°
2026-04-28 01:35 56.58990 53.75655 31808 ft 539 kts 319°
2026-04-28 01:35 56.65215 53.68018 31803 ft 539 kts 319°
2026-04-28 01:36 56.71434 53.60349 31801 ft 538 kts 319°
2026-04-28 01:36 56.77595 53.52722 31782 ft 537 kts 319°
2026-04-28 01:37 56.83510 53.44520 31784 ft 528 kts 310°
2026-04-28 01:37 56.88451 53.34835 31785 ft 517 kts 301°
2026-04-28 01:38 56.93008 53.24660 31774 ft 517 kts 301°
2026-04-28 01:38 56.97580 53.14544 31771 ft 518 kts 302°
2026-04-28 01:39 57.02218 53.04355 31768 ft 520 kts 302°
2026-04-28 01:39 57.06852 52.94138 31754 ft 520 kts 302°
2026-04-28 01:40 57.11446 52.83974 31756 ft 520 kts 302°
2026-04-28 01:40 57.16075 52.73708 31740 ft 520 kts 302°
2026-04-28 01:41 57.20692 52.63421 31740 ft 520 kts 303°
2026-04-28 01:41 57.25299 52.53111 31743 ft 519 kts 303°
2026-04-28 01:42 57.29858 52.42859 31724 ft 519 kts 302°
2026-04-28 01:42 57.34437 52.32521 31728 ft 519 kts 302°
2026-04-28 01:43 57.39243 52.22494 31722 ft 527 kts 314°
2026-04-28 01:43 57.42263 52.18491 31730 ft 536 kts 325°
2026-04-28 01:43 57.45619 52.15409 31715 ft 543 kts 335°
2026-04-28 01:44 57.52871 52.11522 31723 ft 547 kts 342°
2026-04-28 01:44 57.60235 52.07895 31714 ft 548 kts 341°
2026-04-28 01:45 57.67604 52.04089 31716 ft 549 kts 341°
2026-04-28 01:45 57.74964 52.00161 31702 ft 548 kts 341°
2026-04-28 01:46 57.82294 51.96214 31689 ft 547 kts 341°
2026-04-28 01:46 57.89549 51.92304 31691 ft 545 kts 341°
2026-04-28 01:47 57.96850 51.88358 31687 ft 545 kts 341°
2026-04-28 01:47 58.04158 51.84396 31685 ft 546 kts 341°
2026-04-28 01:48 58.11464 51.80416 31684 ft 547 kts 341°
2026-04-28 01:48 58.18739 51.76435 31679 ft 548 kts 341°
2026-04-28 01:49 58.26078 51.72403 31686 ft 548 kts 341°
2026-04-28 01:49 58.33409 51.68356 31663 ft 547 kts 341°
2026-04-28 01:50 58.40673 51.64154 31660 ft 544 kts 337°
2026-04-28 01:50 58.47486 51.58087 31678 ft 538 kts 327°
2026-04-28 01:51 58.53991 51.51061 31668 ft 537 kts 328°
2026-04-28 01:51 58.60541 51.44163 31648 ft 537 kts 328°
2026-04-28 01:52 58.67088 51.37303 31612 ft 536 kts 328°
2026-04-28 01:52 58.73625 51.30381 31644 ft 537 kts 328°
2026-04-28 01:53 58.80177 51.23412 31647 ft 539 kts 328°
2026-04-28 01:53 58.86746 51.16405 31631 ft 540 kts 328°
2026-04-28 01:54 58.93325 51.09364 31627 ft 541 kts 328°
2026-04-28 01:54 58.99907 51.02299 31625 ft 541 kts 328°
2026-04-28 01:55 59.06474 50.95212 31624 ft 540 kts 328°
2026-04-28 01:55 59.13018 50.88082 31615 ft 538 kts 328°
2026-04-28 01:56 59.19488 50.80997 31611 ft 536 kts 328°
2026-04-28 01:56 59.25984 50.73861 31602 ft 535 kts 328°
2026-04-28 01:57 59.32428 50.66606 31612 ft 534 kts 327°
2026-04-28 01:57 59.38860 50.59259 31601 ft 535 kts 327°
2026-04-28 01:58 59.45289 50.51912 31589 ft 535 kts 327°
2026-04-28 01:58 59.51728 50.44537 31593 ft 536 kts 327°
2026-04-28 01:59 59.58170 50.37106 31595 ft 536 kts 327°
2026-04-28 01:59 59.64592 50.29609 31570 ft 536 kts 327°
2026-04-28 02:00 59.70968 50.22019 31573 ft 535 kts 327°
2026-04-28 02:00 59.77341 50.14403 31565 ft 534 kts 327°
2026-04-28 02:01 59.83704 50.06785 31571 ft 534 kts 327°
2026-04-28 02:01 59.90086 49.99126 31561 ft 535 kts 327°
2026-04-28 02:02 59.96437 49.91546 31549 ft 536 kts 327°
2026-04-28 02:02 60.02846 49.83860 31550 ft 537 kts 327°
2026-04-28 02:03 60.09200 49.75981 31560 ft 536 kts 325°
2026-04-28 02:03 60.15419 49.67723 31551 ft 535 kts 324°
2026-04-28 02:04 60.21573 49.59476 31531 ft 535 kts 324°
2026-04-28 02:04 60.27789 49.51196 31523 ft 534 kts 324°
2026-04-28 02:05 60.34001 49.42927 31545 ft 533 kts 325°
2026-04-28 02:05 60.40142 49.34718 31516 ft 532 kts 325°
2026-04-28 02:06 60.46318 49.26417 31515 ft 532 kts 325°
2026-04-28 02:06 60.52475 49.18100 31510 ft 531 kts 324°
2026-04-28 02:07 60.58594 49.09794 31533 ft 531 kts 325°
2026-04-28 02:07 60.64745 49.01408 31507 ft 530 kts 325°
2026-04-28 02:08 60.70876 48.93011 31503 ft 530 kts 325°
2026-04-28 02:08 60.77006 48.84573 31501 ft 530 kts 324°
2026-04-28 02:09 60.83079 48.76176 31510 ft 530 kts 325°
2026-04-28 02:09 60.89191 48.67686 31498 ft 530 kts 325°
2026-04-28 02:10 60.95290 48.59140 31496 ft 529 kts 325°
2026-04-28 02:10 61.01380 48.50574 31491 ft 529 kts 325°
2026-04-28 02:11 61.07473 48.42004 31491 ft 529 kts 325°
2026-04-28 02:11 61.13512 48.33467 31490 ft 530 kts 325°
2026-04-28 02:12 61.19627 48.24781 31488 ft 533 kts 325°
2026-04-28 02:12 61.25762 48.16034 31486 ft 536 kts 325°
2026-04-28 02:13 61.30888 48.08705 31477 ft 537 kts 325°
2026-04-28 02:13 61.38051 47.98413 31473 ft 537 kts 325°
2026-04-28 02:14 61.43154 47.91043 31486 ft 536 kts 325°
2026-04-28 02:14 61.49289 47.82139 31481 ft 535 kts 325°
2026-04-28 02:15 61.58450 47.68766 31483 ft 534 kts 325°
2026-04-28 02:16 61.64538 47.59822 31454 ft 533 kts 325°
2026-04-28 02:16 61.70577 47.50909 31467 ft 532 kts 325°
2026-04-28 02:17 61.76657 47.41893 31475 ft 532 kts 325°
2026-04-28 02:17 61.82688 47.32923 31464 ft 532 kts 325°
2026-04-28 02:18 61.88741 47.23921 31464 ft 532 kts 325°
2026-04-28 02:18 61.94820 47.14828 31473 ft 532 kts 325°
2026-04-28 02:19 62.00867 47.05706 31458 ft 533 kts 324°
2026-04-28 02:19 62.06917 46.96524 31443 ft 533 kts 324°
2026-04-28 02:20 62.12919 46.87373 31459 ft 533 kts 325°
2026-04-28 02:20 62.18947 46.78139 31434 ft 532 kts 325°
2026-04-28 02:21 62.24955 46.68892 31446 ft 531 kts 325°
2026-04-28 02:21 62.30945 46.59625 31443 ft 530 kts 324°
2026-04-28 02:22 62.36893 46.50377 31427 ft 530 kts 325°
2026-04-28 02:22 62.42861 46.41051 31423 ft 529 kts 325°
2026-04-28 02:23 62.48838 46.31663 31437 ft 530 kts 324°
2026-04-28 02:23 62.54823 46.22216 31433 ft 533 kts 324°
2026-04-28 02:24 62.60761 46.12707 31433 ft 535 kts 323°
2026-04-28 02:24 62.66627 46.02690 31424 ft 536 kts 322°
2026-04-28 02:25 62.72472 45.92515 31420 ft 536 kts 322°
2026-04-28 02:25 62.78308 45.82386 31421 ft 535 kts 322°
2026-04-28 02:26 62.84143 45.72265 31414 ft 534 kts 322°
2026-04-28 02:26 62.89940 45.62168 31405 ft 534 kts 323°
2026-04-28 02:27 62.95743 45.52001 31405 ft 533 kts 323°
2026-04-28 02:27 63.01547 45.41776 31403 ft 533 kts 322°
2026-04-28 02:28 63.07301 45.31585 31403 ft 533 kts 322°
2026-04-28 02:28 63.13091 45.21275 31376 ft 533 kts 322°
2026-04-28 02:29 63.18868 45.10936 31399 ft 534 kts 322°
2026-04-28 02:29 63.24633 45.00562 31383 ft 534 kts 322°
2026-04-28 02:30 63.30357 44.90207 31402 ft 534 kts 322°
2026-04-28 02:30 63.36124 44.79725 31396 ft 534 kts 322°
2026-04-28 02:31 63.41892 44.69222 31387 ft 533 kts 322°
2026-04-28 02:31 63.47598 44.58795 31385 ft 533 kts 322°
2026-04-28 02:32 63.53343 44.48233 31390 ft 532 kts 322°
2026-04-28 02:32 63.59062 44.37655 31386 ft 532 kts 322°
2026-04-28 02:33 63.64773 44.27042 31383 ft 531 kts 322°
2026-04-28 02:33 63.70427 44.16475 31390 ft 531 kts 322°
2026-04-28 02:34 63.76112 44.05791 31404 ft 530 kts 322°
2026-04-28 02:34 63.81754 43.95131 31411 ft 531 kts 321°
2026-04-28 02:35 63.87424 43.84361 31396 ft 530 kts 321°
2026-04-28 02:35 63.93069 43.73577 31424 ft 529 kts 321°
2026-04-28 02:36 63.98660 43.62845 31409 ft 527 kts 321°
2026-04-28 02:36 64.04272 43.52006 31437 ft 527 kts 320°
2026-04-28 02:37 64.09859 43.41154 31437 ft 527 kts 320°
2026-04-28 02:37 64.15445 43.30258 31451 ft 526 kts 320°
2026-04-28 02:38 64.20989 43.19448 31446 ft 525 kts 320°
2026-04-28 02:38 64.26561 43.08551 31449 ft 525 kts 320°
2026-04-28 02:39 64.32112 42.97624 31483 ft 524 kts 320°
2026-04-28 02:39 64.37634 42.86689 31477 ft 525 kts 320°
2026-04-28 02:40 64.43172 42.75667 31494 ft 525 kts 320°
2026-04-28 02:40 64.48697 42.64575 31490 ft 525 kts 320°
2026-04-28 02:41 64.54170 42.53510 31509 ft 525 kts 320°
2026-04-28 02:41 64.59680 42.42314 31509 ft 525 kts 319°
2026-04-28 02:42 64.65180 42.31079 31523 ft 524 kts 319°
2026-04-28 02:42 64.70672 42.19797 31518 ft 524 kts 319°
2026-04-28 02:43 64.76104 42.08574 31541 ft 523 kts 319°
2026-04-28 02:43 64.81561 41.97234 31556 ft 523 kts 318°
2026-04-28 02:44 64.86852 41.85456 31553 ft 523 kts 315°
2026-04-28 02:44 64.92063 41.73518 31584 ft 522 kts 316°
2026-04-28 02:45 64.97294 41.61828 31585 ft 521 kts 318°
2026-04-28 02:45 65.02787 41.50676 31604 ft 520 kts 320°
2026-04-28 02:46 65.08320 41.39645 31612 ft 520 kts 320°
2026-04-28 02:46 65.13814 41.28472 31616 ft 519 kts 319°
2026-04-28 02:47 65.19266 41.17254 31618 ft 517 kts 319°
2026-04-28 02:47 65.24697 41.06025 31637 ft 516 kts 319°
2026-04-28 02:48 65.30075 40.94796 31637 ft 516 kts 319°
2026-04-28 02:48 65.35479 40.83439 31658 ft 516 kts 319°
2026-04-28 02:49 65.40882 40.72027 31675 ft 517 kts 318°
2026-04-28 02:49 65.46277 40.60570 31667 ft 517 kts 317°
2026-04-28 02:50 65.51634 40.49128 31689 ft 517 kts 317°
2026-04-28 02:50 65.57006 40.37584 31703 ft 516 kts 317°
2026-04-28 02:51 65.62377 40.25986 31718 ft 516 kts 316°
2026-04-28 02:51 65.67355 40.13673 31710 ft 513 kts 306°
2026-04-28 02:52 65.71212 39.99244 31722 ft 508 kts 294°
2026-04-28 02:52 65.74258 39.83735 31726 ft 507 kts 292°
2026-04-28 02:53 65.77263 39.68310 31737 ft 507 kts 293°
2026-04-28 02:53 65.80325 39.52807 31751 ft 507 kts 293°
2026-04-28 02:54 65.83382 39.37283 31755 ft 506 kts 293°
2026-04-28 02:54 65.86343 39.21812 31750 ft 505 kts 292°
2026-04-28 02:55 65.89240 39.06158 31766 ft 504 kts 292°
2026-04-28 02:55 65.92126 38.90482 31767 ft 505 kts 292°
2026-04-28 02:56 65.94992 38.74864 31785 ft 504 kts 291°
2026-04-28 02:56 65.97856 38.59155 31773 ft 504 kts 291°
2026-04-28 02:57 66.00707 38.43411 31786 ft 503 kts 291°
2026-04-28 02:57 66.03565 38.27691 31785 ft 503 kts 291°
2026-04-28 02:58 66.06396 38.12057 31794 ft 503 kts 291°
2026-04-28 02:58 66.09223 37.96298 31811 ft 502 kts 291°
2026-04-28 02:59 66.11572 37.83094 31802 ft 501 kts 291°
2026-04-28 02:59 66.14338 37.67424 31805 ft 500 kts 291°
2026-04-28 03:00 66.17101 37.51656 31825 ft 499 kts 290°
2026-04-28 03:00 66.19847 37.35856 31826 ft 498 kts 290°
2026-04-28 03:01 66.22552 37.20161 31854 ft 498 kts 290°
2026-04-28 03:01 66.25253 37.04391 31837 ft 496 kts 290°
2026-04-28 03:02 66.28094 36.88745 31836 ft 497 kts 296°
2026-04-28 03:02 66.31931 36.74389 31841 ft 499 kts 306°
2026-04-28 03:03 66.36243 36.60955 31856 ft 499 kts 306°
2026-04-28 03:03 66.40546 36.47357 31850 ft 499 kts 306°
2026-04-28 03:04 66.44813 36.33600 31872 ft 500 kts 305°
2026-04-28 03:04 66.49029 36.19856 31868 ft 501 kts 305°
2026-04-28 03:05 66.53214 36.05861 31884 ft 501 kts 304°
2026-04-28 03:05 66.57379 35.91790 31884 ft 501 kts 304°
2026-04-28 03:06 66.61505 35.77802 31912 ft 500 kts 304°
2026-04-28 03:06 66.65647 35.63698 31898 ft 499 kts 304°
2026-04-28 03:07 66.69761 35.49600 31914 ft 498 kts 304°
2026-04-28 03:07 66.73859 35.35462 31914 ft 497 kts 304°
2026-04-28 03:08 66.77903 35.21423 31924 ft 496 kts 304°
2026-04-28 03:08 66.81966 35.07224 31932 ft 497 kts 303°
2026-04-28 03:09 66.86024 34.92950 31947 ft 498 kts 303°
2026-04-28 03:09 66.90050 34.78700 31944 ft 499 kts 303°
2026-04-28 03:10 66.94095 34.64291 31960 ft 499 kts 303°
2026-04-28 03:10 66.98129 34.49822 31953 ft 500 kts 303°
2026-04-28 03:11 67.02152 34.35301 31972 ft 500 kts 303°
2026-04-28 03:11 67.06132 34.20836 31962 ft 499 kts 303°
2026-04-28 03:12 67.10139 34.06188 31973 ft 498 kts 303°
2026-04-28 03:12 67.14109 33.91746 31971 ft 497 kts 303°
2026-04-28 03:13 67.18198 33.77344 31988 ft 497 kts 304°
2026-04-28 03:13 67.22259 33.63001 31993 ft 497 kts 304°
2026-04-28 03:14 67.26312 33.48509 32006 ft 497 kts 303°
2026-04-28 03:14 67.30345 33.33957 32005 ft 496 kts 303°
2026-04-28 03:15 67.34333 33.19472 32009 ft 496 kts 303°
2026-04-28 03:15 67.38331 33.04855 32013 ft 496 kts 303°
2026-04-28 03:16 67.42318 32.90189 32031 ft 497 kts 304°
2026-04-28 03:16 67.46297 32.75451 32028 ft 497 kts 304°
2026-04-28 03:17 67.50244 32.60621 32045 ft 497 kts 303°
2026-04-28 03:17 67.56095 32.38381 32065 ft 497 kts 302°
2026-04-28 03:18 67.60005 32.23416 32065 ft 497 kts 304°
2026-04-28 03:18 67.63908 32.08379 32084 ft 497 kts 304°
2026-04-28 03:19 67.67767 31.93405 32080 ft 496 kts 304°
2026-04-28 03:19 67.71629 31.78322 32102 ft 496 kts 304°
2026-04-28 03:20 67.75472 31.63208 32099 ft 496 kts 303°
2026-04-28 03:20 67.79281 31.48124 32114 ft 496 kts 304°
2026-04-28 03:21 67.83088 31.32941 32116 ft 495 kts 304°
2026-04-28 03:21 67.86884 31.17694 32136 ft 494 kts 304°
2026-04-28 03:22 67.90655 31.02443 32139 ft 493 kts 304°
2026-04-28 03:22 67.94380 30.87275 32148 ft 493 kts 303°
2026-04-28 03:23 67.98112 30.71973 32139 ft 493 kts 304°
2026-04-28 03:23 68.01832 30.56611 32157 ft 492 kts 304°
2026-04-28 03:24 68.05528 30.41234 32151 ft 491 kts 303°
2026-04-28 03:24 68.09207 30.25821 32164 ft 490 kts 304°
2026-04-28 03:25 68.12848 30.10467 32163 ft 490 kts 304°
2026-04-28 03:25 68.16494 29.94977 32164 ft 490 kts 303°
2026-04-28 03:26 68.20122 29.79448 32183 ft 489 kts 303°
2026-04-28 03:26 68.23705 29.64004 32172 ft 488 kts 304°
2026-04-28 03:27 68.27285 29.48468 32171 ft 487 kts 303°
2026-04-28 03:27 68.30848 29.32895 32171 ft 487 kts 303°
2026-04-28 03:28 68.34398 29.17257 32194 ft 487 kts 304°
2026-04-28 03:28 68.37910 29.01683 32181 ft 488 kts 303°
2026-04-28 03:29 68.41441 28.85901 32203 ft 489 kts 303°
2026-04-28 03:29 68.44962 28.70053 32205 ft 490 kts 303°
2026-04-28 03:30 68.48479 28.54123 32215 ft 490 kts 302°
2026-04-28 03:30 68.52381 28.38964 32212 ft 487 kts 312°
2026-04-28 03:31 68.56871 28.25205 32223 ft 486 kts 313°
2026-04-28 03:31 68.61388 28.11409 32222 ft 486 kts 313°
2026-04-28 03:32 68.65859 27.97519 32227 ft 485 kts 313°
2026-04-28 03:32 68.70304 27.83531 32224 ft 485 kts 313°
2026-04-28 03:33 68.74705 27.69569 32226 ft 485 kts 312°
2026-04-28 03:33 68.79122 27.55471 32221 ft 484 kts 313°
2026-04-28 03:34 68.83517 27.41356 32237 ft 483 kts 312°
2026-04-28 03:34 68.87887 27.27230 32245 ft 482 kts 312°
2026-04-28 03:35 68.92239 27.13068 32276 ft 482 kts 312°
2026-04-28 03:35 68.96551 26.98940 32279 ft 481 kts 312°
2026-04-28 03:36 69.00882 26.84658 32267 ft 481 kts 312°
2026-04-28 03:36 69.05164 26.70442 32280 ft 480 kts 312°
2026-04-28 03:37 69.09444 26.56139 32281 ft 479 kts 312°
2026-04-28 03:37 69.13707 26.41793 32281 ft 478 kts 312°
2026-04-28 03:38 69.17965 26.27371 32286 ft 478 kts 312°
2026-04-28 03:38 69.22207 26.12904 32286 ft 478 kts 311°
2026-04-28 03:39 69.26397 25.98519 32280 ft 477 kts 312°
2026-04-28 03:39 69.30594 25.84024 32290 ft 476 kts 311°
2026-04-28 03:40 69.34585 25.69061 32295 ft 477 kts 305°
2026-04-28 03:40 69.38110 25.53104 32294 ft 477 kts 304°
2026-04-28 03:41 69.41586 25.37101 32296 ft 478 kts 304°
2026-04-28 03:41 69.45082 25.21015 32274 ft 477 kts 305°
2026-04-28 03:42 69.48548 25.05041 32292 ft 475 kts 305°
2026-04-28 03:42 69.52010 24.88994 32299 ft 474 kts 305°
2026-04-28 03:43 69.55452 24.72918 32311 ft 474 kts 305°
2026-04-28 03:43 69.58887 24.56749 32313 ft 474 kts 304°
2026-04-28 03:44 69.62297 24.40572 32305 ft 474 kts 304°
2026-04-28 03:44 69.65665 24.24469 32302 ft 472 kts 305°
2026-04-28 03:45 69.69031 24.08253 32312 ft 471 kts 304°
2026-04-28 03:45 69.72375 23.92029 32317 ft 470 kts 304°
2026-04-28 03:46 69.75678 23.75878 32314 ft 470 kts 304°
2026-04-28 03:46 69.78987 23.59574 32316 ft 470 kts 304°
2026-04-28 03:47 69.81723 23.45993 32286 ft 469 kts 305°
2026-04-28 03:47 69.84995 23.29632 32310 ft 468 kts 305°
2026-04-28 03:48 69.88244 23.13269 32314 ft 466 kts 304°
2026-04-28 03:48 69.91465 22.96920 32322 ft 465 kts 304°
2026-04-28 03:49 69.94649 22.80630 32326 ft 465 kts 304°
2026-04-28 03:49 69.97840 22.64188 32319 ft 465 kts 304°
2026-04-28 03:50 70.01000 22.47757 32330 ft 462 kts 305°
2026-04-28 03:50 70.04112 22.31456 32338 ft 459 kts 305°
2026-04-28 03:51 70.07214 22.15088 32338 ft 458 kts 304°
2026-04-28 03:51 70.10290 21.98731 32333 ft 458 kts 304°
2026-04-28 03:52 70.13334 21.82419 32342 ft 458 kts 304°
2026-04-28 03:52 70.16397 21.65875 32309 ft 459 kts 304°
2026-04-28 03:53 70.19425 21.49374 32352 ft 455 kts 304°
2026-04-28 03:53 70.22405 21.33007 32345 ft 455 kts 304°
2026-04-28 03:54 70.25389 21.16510 32338 ft 455 kts 304°
2026-04-28 03:54 70.28358 20.99953 32345 ft 454 kts 304°
2026-04-28 03:55 70.31307 20.83370 32354 ft 454 kts 304°
2026-04-28 03:55 70.34227 20.66822 32354 ft 455 kts 304°
2026-04-28 03:56 70.37153 20.50110 32367 ft 455 kts 303°
2026-04-28 03:56 70.40065 20.33334 32367 ft 456 kts 303°
2026-04-28 03:57 70.42949 20.16581 32375 ft 456 kts 303°
2026-04-28 03:57 70.45836 19.99677 32383 ft 457 kts 303°
2026-04-28 03:58 70.48714 19.82685 32384 ft 457 kts 303°
2026-04-28 03:58 70.51566 19.65699 32372 ft 456 kts 303°
2026-04-28 03:59 70.54388 19.48754 32372 ft 456 kts 303°
2026-04-28 03:59 70.57208 19.31684 32378 ft 455 kts 303°
2026-04-28 04:00 70.60012 19.14580 32379 ft 455 kts 302°
2026-04-28 04:00 70.63055 18.98167 32383 ft 448 kts 310°
2026-04-28 04:01 70.66859 18.83460 32332 ft 444 kts 314°
2026-04-28 04:01 70.70757 18.69020 32375 ft 442 kts 314°
2026-04-28 04:02 70.74624 18.54531 32391 ft 441 kts 314°
2026-04-28 04:02 70.78462 18.39988 32386 ft 441 kts 314°
2026-04-28 04:03 70.82284 18.25379 32389 ft 441 kts 313°
2026-04-28 04:03 70.86069 18.10809 32388 ft 441 kts 313°
2026-04-28 04:04 70.89865 17.96096 32388 ft 441 kts 313°
2026-04-28 04:04 70.93646 17.81335 32392 ft 438 kts 312°
2026-04-28 04:05 70.97370 17.66704 32389 ft 437 kts 312°
2026-04-28 04:05 71.01095 17.51971 32399 ft 436 kts 312°
2026-04-28 04:06 71.04802 17.37206 32399 ft 436 kts 312°
2026-04-28 04:06 71.08499 17.22377 32404 ft 436 kts 312°
2026-04-28 04:07 71.12166 17.07566 32407 ft 436 kts 312°
2026-04-28 04:07 71.15846 16.92597 32395 ft 437 kts 311°
2026-04-28 04:08 71.19495 16.77653 32414 ft 437 kts 311°
2026-04-28 04:08 71.23156 16.62550 32410 ft 438 kts 310°
2026-04-28 04:09 71.26817 16.47338 32406 ft 439 kts 310°
2026-04-28 04:09 71.30463 16.32082 32410 ft 439 kts 310°
2026-04-28 04:10 71.34100 16.16754 32414 ft 439 kts 310°
2026-04-28 04:10 71.37723 16.01372 32396 ft 439 kts 309°
2026-04-28 04:11 71.41334 15.85934 32412 ft 439 kts 309°
2026-04-28 04:11 71.44913 15.70527 32417 ft 440 kts 309°
2026-04-28 04:12 71.48516 15.54897 32421 ft 441 kts 309°
2026-04-28 04:12 71.52109 15.39195 32421 ft 441 kts 309°
2026-04-28 04:13 71.55663 15.23553 32426 ft 441 kts 309°
2026-04-28 04:13 71.59231 15.07731 32381 ft 441 kts 308°
2026-04-28 04:14 71.62777 14.91886 32420 ft 441 kts 308°
2026-04-28 04:14 71.66320 14.75942 32429 ft 441 kts 308°
2026-04-28 04:15 71.69821 14.60064 32429 ft 441 kts 308°
2026-04-28 04:16 71.75095 14.35926 32428 ft 442 kts 307°
2026-04-28 04:16 71.78596 14.19747 32429 ft 443 kts 307°
2026-04-28 04:17 71.82086 14.03497 32409 ft 442 kts 307°
2026-04-28 04:17 71.85560 13.87196 32425 ft 441 kts 307°
2026-04-28 04:18 71.88995 13.70958 32432 ft 441 kts 306°
2026-04-28 04:18 71.92429 13.54599 32435 ft 441 kts 306°
2026-04-28 04:19 71.95855 13.38150 32437 ft 441 kts 306°
2026-04-28 04:19 71.99243 13.21759 32433 ft 441 kts 306°
2026-04-28 04:20 72.02636 13.05217 32404 ft 441 kts 306°
2026-04-28 04:20 72.06012 12.88626 32425 ft 440 kts 305°
2026-04-28 04:21 72.09372 12.71984 32436 ft 440 kts 305°
2026-04-28 04:21 72.12710 12.55323 32433 ft 440 kts 305°
2026-04-28 04:22 72.16024 12.38650 32433 ft 440 kts 305°
2026-04-28 04:22 72.19343 12.21819 32435 ft 440 kts 305°
2026-04-28 04:23 72.22623 12.05057 32438 ft 440 kts 304°
2026-04-28 04:23 72.25913 11.88106 32429 ft 440 kts 304°
2026-04-28 04:24 72.29190 11.71088 32427 ft 441 kts 304°
2026-04-28 04:24 72.32435 11.54095 32433 ft 441 kts 304°
2026-04-28 04:25 72.35688 11.36926 32431 ft 442 kts 303°
2026-04-28 04:25 72.38931 11.19669 32432 ft 442 kts 303°
2026-04-28 04:26 72.42158 11.02358 32435 ft 442 kts 303°
2026-04-28 04:26 72.45346 10.85109 32432 ft 442 kts 303°
2026-04-28 04:27 72.48542 10.67677 32435 ft 442 kts 303°
2026-04-28 04:27 72.51719 10.50202 32426 ft 442 kts 303°
2026-04-28 04:28 72.54881 10.32670 32432 ft 441 kts 303°
2026-04-28 04:28 72.58011 10.15164 32438 ft 441 kts 302°
2026-04-28 04:29 72.61145 9.97490 32431 ft 441 kts 302°
2026-04-28 04:29 72.64260 9.79770 32404 ft 441 kts 302°
2026-04-28 04:30 72.67353 9.62027 32420 ft 440 kts 302°
2026-04-28 04:30 72.70424 9.44262 32426 ft 439 kts 302°
2026-04-28 04:31 72.73457 9.26561 32422 ft 439 kts 302°
2026-04-28 04:31 72.76508 9.08610 32654 ft 443 kts 301°
2026-04-28 04:31 72.78030 8.99590 33042 ft 441 kts 301°
2026-04-28 04:32 72.79545 8.90578 33501 ft 437 kts 301°
2026-04-28 04:32 72.81016 8.81782 33965 ft 434 kts 301°
2026-04-28 04:32 72.82495 8.72902 34406 ft 431 kts 301°
2026-04-28 04:32 72.83965 8.64042 34692 ft 430 kts 301°
2026-04-28 04:33 72.85421 8.55233 34936 ft 430 kts 301°
2026-04-28 04:33 72.86881 8.46360 35090 ft 431 kts 301°
2026-04-28 04:33 72.88341 8.37451 35258 ft 433 kts 301°
2026-04-28 04:33 72.89803 8.28488 35458 ft 433 kts 301°
2026-04-28 04:34 72.90769 8.22550 35589 ft 434 kts 301°
2026-04-28 04:34 72.92225 8.13554 35784 ft 434 kts 300°
2026-04-28 04:34 72.93683 8.04513 35969 ft 435 kts 300°
2026-04-28 04:34 72.95138 7.95447 36131 ft 436 kts 300°
2026-04-28 04:35 72.96588 7.86370 36301 ft 437 kts 300°
2026-04-28 04:35 72.99481 7.68148 36384 ft 435 kts 300°
2026-04-28 04:36 73.02334 7.50009 36363 ft 431 kts 300°
2026-04-28 04:36 73.05137 7.32029 36389 ft 429 kts 299°
2026-04-28 04:37 73.07935 7.13930 36411 ft 428 kts 299°
2026-04-28 04:37 73.10717 6.95774 36404 ft 429 kts 299°
2026-04-28 04:38 73.13485 6.77537 36405 ft 430 kts 299°
2026-04-28 04:38 73.16232 6.59282 36404 ft 432 kts 298°
2026-04-28 04:39 73.18992 6.40774 36386 ft 433 kts 298°
2026-04-28 04:39 73.21742 6.22157 36394 ft 435 kts 298°
2026-04-28 04:40 73.24461 6.03581 36382 ft 435 kts 297°
2026-04-28 04:40 73.27187 5.84777 36380 ft 436 kts 297°
2026-04-28 04:41 73.29900 5.65890 36378 ft 436 kts 297°
2026-04-28 04:41 73.32596 5.46940 36369 ft 436 kts 297°
2026-04-28 04:42 73.35250 5.28110 36367 ft 436 kts 297°
2026-04-28 04:42 73.37907 5.09074 36338 ft 435 kts 296°
2026-04-28 04:43 73.40550 4.89962 36360 ft 435 kts 296°
2026-04-28 04:43 73.43156 4.70924 36360 ft 436 kts 296°
2026-04-28 04:44 73.45762 4.51701 36353 ft 436 kts 296°
2026-04-28 04:44 73.48357 4.32370 36353 ft 437 kts 295°
2026-04-28 04:45 73.50938 4.12956 36339 ft 437 kts 295°
2026-04-28 04:45 73.53481 3.93635 36340 ft 437 kts 295°
2026-04-28 04:46 73.56026 3.74095 36333 ft 437 kts 294°
2026-04-28 04:46 73.58549 3.54537 36324 ft 437 kts 294°
2026-04-28 04:47 73.61051 3.34939 36322 ft 437 kts 294°
2026-04-28 04:47 73.63542 3.15230 36346 ft 438 kts 294°
2026-04-28 04:48 73.66000 2.95569 36315 ft 438 kts 294°
2026-04-28 04:48 73.68458 2.75714 36312 ft 438 kts 293°
2026-04-28 04:49 73.70896 2.55805 36290 ft 438 kts 292°
2026-04-28 04:49 73.73317 2.35829 36295 ft 438 kts 292°
2026-04-28 04:50 73.75699 2.15966 36306 ft 438 kts 292°
2026-04-28 04:50 73.78082 1.95870 36293 ft 438 kts 292°
2026-04-28 04:51 73.80444 1.75742 36291 ft 438 kts 292°
2026-04-28 04:51 73.82766 1.55746 36267 ft 437 kts 292°
2026-04-28 04:52 73.85086 1.35535 36264 ft 437 kts 291°
2026-04-28 04:52 73.87389 1.15249 36275 ft 437 kts 291°
2026-04-28 04:53 73.89669 0.94957 36255 ft 437 kts 291°
2026-04-28 04:53 73.91915 0.74734 36255 ft 437 kts 290°
2026-04-28 04:54 73.94157 0.54313 36257 ft 436 kts 290°
2026-04-28 04:54 73.96378 0.33871 36240 ft 436 kts 290°
2026-04-28 04:55 73.98570 0.13483 36240 ft 436 kts 290°
2026-04-28 04:55 74.00380 -0.07456 36202 ft 435 kts 280°
2026-04-28 04:56 74.01367 -0.29163 36238 ft 438 kts 278°
2026-04-28 04:56 74.02319 -0.51081 36225 ft 441 kts 278°
2026-04-28 04:57 74.03273 -0.73196 36229 ft 443 kts 278°
2026-04-28 04:57 74.04215 -0.95362 36224 ft 445 kts 278°
2026-04-28 04:58 74.05136 -1.17513 36222 ft 445 kts 277°
2026-04-28 04:58 74.06038 -1.39772 36205 ft 444 kts 277°
2026-04-28 04:59 74.06916 -1.62028 36196 ft 443 kts 277°
2026-04-28 04:59 74.07767 -1.84237 36194 ft 442 kts 277°
2026-04-28 05:00 74.08594 -2.06414 36190 ft 441 kts 277°
2026-04-28 05:00 74.09398 -2.28582 36190 ft 440 kts 276°
2026-04-28 05:01 74.10173 -2.50631 36188 ft 440 kts 276°
2026-04-28 05:01 74.10930 -2.72814 36157 ft 440 kts 276°
2026-04-28 05:02 74.11661 -2.94897 36170 ft 441 kts 275°
2026-04-28 05:02 74.12375 -3.17192 36167 ft 443 kts 275°
2026-04-28 05:03 74.13070 -3.39620 36154 ft 444 kts 275°
2026-04-28 05:03 74.13742 -3.62083 36150 ft 445 kts 275°
2026-04-28 05:04 74.14392 -3.84600 36118 ft 445 kts 275°
2026-04-28 05:04 74.15021 -4.07180 36130 ft 445 kts 274°
2026-04-28 05:05 74.15622 -4.29671 36121 ft 446 kts 274°
2026-04-28 05:05 74.16203 -4.52269 36108 ft 446 kts 273°
2026-04-28 05:06 74.16762 -4.74944 36110 ft 446 kts 273°
2026-04-28 05:06 74.17297 -4.97593 36093 ft 446 kts 273°
2026-04-28 05:07 74.17808 -5.20249 36085 ft 446 kts 273°
2026-04-28 05:07 74.18295 -5.42927 36069 ft 446 kts 272°
2026-04-28 05:08 74.18758 -5.65529 36069 ft 446 kts 272°
2026-04-28 05:08 74.19198 -5.88276 36070 ft 447 kts 272°
2026-04-28 05:09 74.19616 -6.11028 36054 ft 447 kts 271°
2026-04-28 05:09 74.20011 -6.33848 36045 ft 447 kts 271°
2026-04-28 05:10 74.20379 -6.56515 36032 ft 447 kts 271°
2026-04-28 05:10 74.20726 -6.79338 36043 ft 447 kts 271°
2026-04-28 05:11 74.21049 -7.02179 36033 ft 448 kts 270°
2026-04-28 05:11 74.21349 -7.25060 36012 ft 448 kts 270°
2026-04-28 05:12 74.21625 -7.48006 36010 ft 449 kts 270°
2026-04-28 05:12 74.21876 -7.70807 35994 ft 449 kts 270°
2026-04-28 05:13 74.22105 -7.93793 35999 ft 450 kts 269°
2026-04-28 05:13 74.22310 -8.16780 35996 ft 449 kts 269°
2026-04-28 05:14 74.22489 -8.39594 35981 ft 450 kts 269°
2026-04-28 05:14 74.22645 -8.62616 35976 ft 450 kts 269°
2026-04-28 05:15 74.22778 -8.85632 35963 ft 450 kts 268°
2026-04-28 05:15 74.22886 -9.08646 35961 ft 450 kts 268°
2026-04-28 05:16 74.22970 -9.31538 35941 ft 450 kts 268°
2026-04-28 05:16 74.23030 -9.54578 35955 ft 450 kts 268°
2026-04-28 05:17 74.23072 -9.85284 35924 ft 452 kts 267°
2026-04-28 05:17 74.23075 -10.08404 35925 ft 452 kts 267°
2026-04-28 05:18 74.23054 -10.31545 35928 ft 453 kts 267°
2026-04-28 05:18 74.23008 -10.54723 35909 ft 453 kts 267°
2026-04-28 05:19 74.22939 -10.77765 35916 ft 453 kts 266°
2026-04-28 05:19 74.22845 -11.00946 35904 ft 453 kts 266°
2026-04-28 05:20 74.22726 -11.24130 35897 ft 453 kts 266°
2026-04-28 05:20 74.22582 -11.47287 35886 ft 453 kts 266°
2026-04-28 05:21 74.22416 -11.70277 35886 ft 452 kts 265°
2026-04-28 05:21 74.22227 -11.92992 35887 ft 452 kts 265°
2026-04-28 05:22 74.22014 -12.15720 35869 ft 452 kts 265°
2026-04-28 05:22 74.21775 -12.38823 35878 ft 453 kts 265°
2026-04-28 05:23 74.21511 -12.61907 35860 ft 453 kts 265°
2026-04-28 05:23 74.21222 -12.85023 35854 ft 453 kts 264°
2026-04-28 05:24 74.20908 -13.08163 35845 ft 453 kts 264°
2026-04-28 05:24 74.20570 -13.31270 35840 ft 454 kts 264°
2026-04-28 05:25 74.20208 -13.54396 35846 ft 453 kts 264°
2026-04-28 05:25 74.19821 -13.77492 35851 ft 454 kts 264°
2026-04-28 05:26 74.19409 -14.00577 35831 ft 454 kts 263°
2026-04-28 05:26 74.19291 -14.06980 35834 ft 454 kts 263°
2026-04-28 05:27 74.18934 -14.25676 35839 ft 454 kts 263°
2026-04-28 05:27 74.18472 -14.48752 35846 ft 454 kts 263°
2026-04-28 05:28 74.17985 -14.71815 35838 ft 455 kts 263°
2026-04-28 05:28 74.17470 -14.95016 35835 ft 458 kts 263°
2026-04-28 05:29 74.16929 -15.18273 35824 ft 458 kts 262°
2026-04-28 05:29 74.16364 -15.41528 35826 ft 458 kts 262°
2026-04-28 05:30 74.15774 -15.64731 35833 ft 457 kts 262°
2026-04-28 05:30 74.15161 -15.87866 35820 ft 457 kts 262°
2026-04-28 05:31 74.14523 -16.10983 35813 ft 456 kts 262°
2026-04-28 05:31 74.13863 -16.34025 35822 ft 455 kts 261°
2026-04-28 05:32 74.13179 -16.57015 35815 ft 455 kts 261°
2026-04-28 05:32 74.12470 -16.79999 35814 ft 455 kts 261°
2026-04-28 05:33 74.11738 -17.02945 35815 ft 455 kts 261°
2026-04-28 05:33 74.10982 -17.25869 35822 ft 455 kts 261°
2026-04-28 05:34 74.10201 -17.48775 35828 ft 455 kts 260°
2026-04-28 05:34 74.09396 -17.71674 35844 ft 455 kts 260°
2026-04-28 05:35 74.08566 -17.94569 35832 ft 456 kts 260°
2026-04-28 05:35 74.07711 -18.17466 35830 ft 456 kts 259°
2026-04-28 05:36 74.06834 -18.40297 35828 ft 456 kts 259°
2026-04-28 05:36 74.05932 -18.63118 35838 ft 455 kts 259°
2026-04-28 05:37 74.05013 -18.85737 35838 ft 455 kts 259°
2026-04-28 05:37 74.04067 -19.08443 35851 ft 455 kts 259°
2026-04-28 05:38 74.03089 -19.31292 35840 ft 455 kts 259°
2026-04-28 05:38 74.02101 -19.53799 35838 ft 454 kts 258°
2026-04-28 05:39 74.01079 -19.76559 35843 ft 454 kts 258°
2026-04-28 05:39 74.00042 -19.99138 35844 ft 454 kts 258°
2026-04-28 05:40 73.99014 -20.21542 35847 ft 454 kts 258°
2026-04-28 05:40 73.97983 -20.44065 35857 ft 454 kts 258°
2026-04-28 05:41 73.96930 -20.66604 35855 ft 454 kts 258°
2026-04-28 05:41 73.95847 -20.89145 35857 ft 455 kts 257°
2026-04-28 05:42 73.94743 -21.11651 35856 ft 455 kts 257°
2026-04-28 05:42 73.93662 -21.34186 35868 ft 455 kts 258°
2026-04-28 05:43 73.92581 -21.56701 35867 ft 455 kts 258°
2026-04-28 05:43 73.91472 -21.79218 35878 ft 456 kts 257°
2026-04-28 05:44 73.90332 -22.01744 35866 ft 457 kts 257°
2026-04-28 05:44 73.89165 -22.24258 35876 ft 457 kts 256°
2026-04-28 05:45 73.87976 -22.46732 35873 ft 458 kts 256°
2026-04-28 05:45 73.86760 -22.69221 35882 ft 458 kts 256°
2026-04-28 05:46 73.85520 -22.91714 35912 ft 459 kts 256°
2026-04-28 05:46 73.84253 -23.14207 35906 ft 460 kts 255°
2026-04-28 05:47 73.82964 -23.36642 35927 ft 459 kts 255°
2026-04-28 05:47 73.81651 -23.59059 35911 ft 459 kts 255°
2026-04-28 05:48 73.80315 -23.81419 35899 ft 459 kts 255°
2026-04-28 05:48 73.78967 -24.03582 35927 ft 459 kts 254°
2026-04-28 05:49 73.77585 -24.25871 35927 ft 459 kts 254°
2026-04-28 05:49 73.76179 -24.48129 35927 ft 459 kts 253°
2026-04-28 05:50 73.74750 -24.70364 35928 ft 460 kts 253°
2026-04-28 05:50 73.73296 -24.92578 35921 ft 459 kts 253°
2026-04-28 05:51 73.71822 -25.14715 35919 ft 459 kts 253°
2026-04-28 05:51 73.70323 -25.36836 35921 ft 459 kts 252°
2026-04-28 05:52 73.68802 -25.58890 35895 ft 459 kts 252°
2026-04-28 05:52 73.67261 -25.80886 35909 ft 459 kts 252°
2026-04-28 05:53 73.65693 -26.02877 35908 ft 459 kts 252°
2026-04-28 05:53 73.64102 -26.24843 35901 ft 459 kts 251°
2026-04-28 05:54 73.62490 -26.46756 35947 ft 460 kts 251°
2026-04-28 05:54 73.60852 -26.68656 35945 ft 460 kts 251°
2026-04-28 05:55 73.59191 -26.90525 35948 ft 460 kts 251°
2026-04-28 05:55 73.57505 -27.12380 35970 ft 461 kts 250°
2026-04-28 05:56 73.55798 -27.34170 35955 ft 460 kts 250°
2026-04-28 05:56 73.54071 -27.55891 35968 ft 459 kts 250°
2026-04-28 05:57 73.52324 -27.77530 35954 ft 459 kts 249°
2026-04-28 05:57 73.50555 -27.99134 35974 ft 459 kts 249°
2026-04-28 05:58 73.48766 -28.20648 35970 ft 458 kts 249°
2026-04-28 05:58 73.46954 -28.42129 35964 ft 458 kts 249°
2026-04-28 05:59 73.45139 -28.63374 35953 ft 457 kts 249°
2026-04-28 05:59 73.43280 -28.84807 35950 ft 457 kts 249°
2026-04-28 06:00 73.41410 -29.06072 35900 ft 456 kts 248°
2026-04-28 06:00 73.39535 -29.27110 35910 ft 456 kts 248°
2026-04-28 06:01 73.37625 -29.48260 35878 ft 458 kts 248°
2026-04-28 06:01 73.35676 -29.69532 35837 ft 461 kts 248°
2026-04-28 06:02 73.33697 -29.90857 35841 ft 463 kts 248°
2026-04-28 06:02 73.31693 -30.12173 35799 ft 464 kts 248°
2026-04-28 06:03 73.29663 -30.33493 35799 ft 465 kts 247°
2026-04-28 06:03 73.27608 -30.54784 35763 ft 465 kts 247°
2026-04-28 06:04 73.25885 -30.72430 35772 ft 464 kts 247°
2026-04-28 06:04 73.23780 -30.93737 35734 ft 464 kts 246°
2026-04-28 06:05 73.21667 -31.14844 35722 ft 463 kts 246°
2026-04-28 06:05 73.19553 -31.35710 35721 ft 462 kts 246°
2026-04-28 06:06 73.17406 -31.56634 35705 ft 462 kts 246°
2026-04-28 06:06 73.15242 -31.77459 35703 ft 461 kts 246°
2026-04-28 06:07 73.13057 -31.98242 35709 ft 462 kts 245°
2026-04-28 06:07 73.10846 -32.19007 35702 ft 462 kts 245°
2026-04-28 06:08 73.08615 -32.39723 35695 ft 462 kts 245°
2026-04-28 06:08 73.06361 -32.60403 35683 ft 463 kts 245°
2026-04-28 06:09 73.04086 -32.81036 35690 ft 463 kts 244°
2026-04-28 06:09 73.01791 -33.01612 35694 ft 463 kts 244°
2026-04-28 06:10 72.99471 -33.22162 35686 ft 464 kts 244°
2026-04-28 06:10 72.97128 -33.42687 35684 ft 464 kts 244°
2026-04-28 06:11 72.94760 -33.63188 35679 ft 465 kts 244°
2026-04-28 06:11 72.92371 -33.83642 35687 ft 465 kts 243°
2026-04-28 06:12 72.91169 -33.93848 35687 ft 465 kts 243°